STARLINK-11145, 59945

Orbit data source: Space-Track

STARLINK-11145, 59945 is a payload satellite owned by SpaceX/Seattle (US) in LEO that was launched on Wed, 05 Jun 2024 UTC via an FALCON 9 launch vehicle from the Air Force Eastern Test Range (AFETR). Payload-class satellites include a variety of spacecraft equipped with specific instruments for various scientific and technological missions. These include communications satellites like Starlink; space stations such as the ISS; scientific satellites like the Hubble; Earth observation satellites from companies like Planet Labs, Umbra, and HawkEye 360; GPS; miniature CubeSats for education and research; and military/defense satellites.

Loading next visibility...
Identifier
59945, 2024-107A
Orbit
LEO
Country
Flag of USUS
Related business
Manufacturer
SpaceX/Seattle
Mission
Operational spacecraft
Bus & Motor
STARLINK V2MD, Unknown motor
Mass
960 kg wet, ~910 kg dry
Launch date (UTC)
2024-06-05 (1 year ago)
Launch vehicle
FALCON 9
Launch site
Air Force Eastern Test Range (AFETR)
Object type
Payload
Rocket body
Debris
Shape & HBR
Unknown
Radar Cross Section
Large (>1 m²)

Expand to show TLE details & history
Last TLE update: 1 day ago

TLE from 1 day ago
0 STARLINK-11145
1 59945U 24107A   25260.64866816 -.00000481  00000-0  89472-6 0  9996
2 59945  53.1595  24.6090 0001296  60.7957 299.3191 15.69718496 74961
Epoch: 2025-09-17T15:34Z
TLE epoch observation values (Epoch: 2025-09-17T15:34:04.929Z)
Latitude
0.00005°
Longitude
154.2669°
Altitude
360.19 km
Speed
7.695 km/s
True Right ascension
01h 38m 26s
True Declination
0° 00' 00"
Sunlit
Object was in full shadow at epoch
Visualization orbit readout
Latitude
Unknown
Longitude
Unknown
Altitude
Unknown
Speed
Unknown
Apparent Right ascension
Unknown
Apparent Declination
Unknown
Sunlit
N/A
Visualization observer readout
Local Sidereal Time
13:53:34
Azimuth
Unknown
Elevation
Unknown
Doppler factor
Unknown
Orbital elements
Apogee altitude
360.836 km
Perigee altitude
359.09 km
Semi-major axis
6,738.1 km
Eccentricity
0.00013
Inclination
53.1595°
RAAN
24.609°
Arg. of periapsis
60.7957°
True anomaly
299.30615°
Mean anomaly
299.3191°
Eccentric anomaly
299.31263°
Mean motion
3.92407 °/min
Orbital period
91.74 mins
BSTAR
8.9472e-7
Loading maneuver chart data...
Computing Atmospheric mass density...
Loading historical data...
Loading historical data...
Loading historical data...
Loading historical data...
Loading historical data...
Loading historical data...
Loading historical data...

Documentation

Showing up to 5 results
|